sat.trackr.live / text

‹ back to catalog

GHGSAT-C5

NORAD 52744 · 2022-057N

PAYLOAD ACTIVE UNKNOWN

§ Identity

Operator
Country
CA
Launch date
2022-05-25
Launch site
AFETR
Launch vehicle
Mass (kg)
RCS (m²)

External: N2YO · Heavens-Above · Gunter

§ Orbital elements

Epoch: 2026-09-20T22:02:22.942176Z

Period
93.79 min
Inclination
97.6812°
Eccentricity
0.0007549
Mean motion
15.35364393 rev/d
Perigee alt
454.7 km
Apogee alt
465.0 km
Semi-major
6,838.0 km
B*
1.3902e-4
RAAN
55.0022°
Arg perigee
132.0361°
Mean anomaly
228.1525°
Rev number
24,022

§ Raw data

GHGSAT-C51 52744U 22057N   26263.91832109  .00004691  00000+0  13902-3 0  99972 52744  97.6812  55.0022 0007549 132.0361 228.1525 15.35364393240229

JSON: /api/v1/satellites/52744 · /tle

For live sub-satellite position, see the globe view (requires WebGL).

§ Visibility from observer

Set your observer location to see the next 7 days of passes ≥ 10°. The values pass through the URL so the page stays shareable.

No JS? Fill the form by hand. The geolocation button needs JavaScript.